Find Tianfu Dongpo 03

NORAD ID: 53450 Int'l Des: 2022-098 Owner: CGSTL Country: CN operational
LEOCIRCULARRETROGRADE

实时位置

正在加载3D地球...

关于 Tianfu Dongpo 03

正在加载描述...

即将过境

Passes for default location (London). Set your location on the main map for personalized predictions.

高度历史

Loading altitude history...

两行轨道根数

1 53450U 22098G 26106.88480355 .00120217 00000-0 59638-3 0 9991
2 53450 97.5485 238.3941 0003546 224.4709 135.6274 15.81647546205432
Epoch: Apr 16, 2026 • Age: 6 hours

当前状态

高度 330.0 km
速度 7.71 km/s
星下点 11.11°N, 18.42°W
发射日期 Aug 10, 2022
运行时间 3.6 years
类型 other

技术详情

分类 Payload
质量 42.00 kg
干质量 42.00 kg
总质量 42.00 kg
长度 1.50 m
直径 1.00 m
跨度 1.50 m
形状 Box
制造商 CGSTL
平台类型 JL-1
阶段状态 In Orbit
所有者/国家 CGSTL/CN

Most Searched